Back to catalog

STARLINK-31463

AliveCommunicationsVLEO
NORAD 59296·PAYLOAD·🇺🇸 United States

Launched Mar 24, 2024 from Cape Canaveral Space Force Station

Loading…

Next Passes (next 24 hours)

TLE

FreshSource: CelesTrak SupGP

Epoch: Sep 14, 2026, 14:08 UTC

1 59296C 24056A   26257.58937500 -.00023644  00000+0 -85658-3 0  2579
2 59296  43.0025 239.9596 0001568 271.4784 309.0691 15.27583295    19

Track STARLINK-31463 in real time with AllMySat

Download on the App Store